When you browse on this site, cookies collect data to enhance your experience and personalize the content and advertising you see.
Visit our Privacy Policy to learn more. By continuing to use the site, you agree to this use of cookies and data.
  • în România
  • Lista ţărilor
  • Pe 7 zile
  • Temperatura apei
  • Meteo pe hartă
  • Widget-uri
  • user-avatar
    Intrare

    Meteo pe oră la Beiuş

    Astăzi, 6 Iunie, Sâmbătă

    Timp Temperatura Precipitaţii Vânt Presiune Umiditate
    00:00 +17°C° 0 mm 2 m/s 738 mmHg 90%
    01:00 +17°C° 0 mm 2 m/s 738 mmHg 89%
    02:00 +17°C° 0 mm 2 m/s 738 mmHg 88%
    03:00 +17°C° 0 mm 2 m/s 738 mmHg 88%
    04:00 +17°C° 0 mm 2 m/s 738 mmHg 87%
    05:00 +17°C° 0.1 mm 2 m/s 738 mmHg 86%
    06:00 +17°C° 0.1 mm 2 m/s 739 mmHg 85%
    07:00 +18°C° 0.1 mm 2 m/s 739 mmHg 84%
    08:00 +20°C° 0.1 mm 2 m/s 739 mmHg 76%
    09:00 +24°C° 0.1 mm 1 m/s 739 mmHg 68%
    10:00 +26°C° 0.1 mm 1 m/s 740 mmHg 61%
    11:00 +26°C° 0.3 mm 1 m/s 739 mmHg 61%
    12:00 +27°C° 0.3 mm 1 m/s 739 mmHg 62%
    13:00 +27°C° 0.3 mm 1 m/s 739 mmHg 62%
    14:00 +27°C° 0.3 mm 1 m/s 739 mmHg 65%
    15:00 +27°C° 0.3 mm 1 m/s 738 mmHg 68%
    16:00 +26°C° 0.3 mm 1 m/s 738 mmHg 71%
    17:00 +25°C° 0 mm 1 m/s 738 mmHg 75%
    18:00 +24°C° 0 mm 1 m/s 737 mmHg 79%
    19:00 +22°C° 0 mm 1 m/s 737 mmHg 83%
    20:00 +21°C° 0 mm 2 m/s 737 mmHg 83%
    21:00 +20°C° 0 mm 2 m/s 738 mmHg 83%
    22:00 +19°C° 0 mm 2 m/s 738 mmHg 83%
    23:00 +19°C° 0 mm 2 m/s 738 mmHg 83%

    Mâine, 7 Iunie, Duminică

    Timp Temperatura Precipitaţii Vânt Presiune Umiditate
    00:00 +18°C° 0 mm 2 m/s 738 mmHg 82%
    01:00 +19°C° 0 mm 1 m/s 738 mmHg 82%
    02:00 +19°C° 0 mm 1 m/s 738 mmHg 82%
    03:00 +19°C° 0 mm 1 m/s 738 mmHg 83%
    04:00 +18°C° 0 mm 1 m/s 738 mmHg 83%
    05:00 +20°C° 0 mm 1 m/s 738 mmHg 78%
    06:00 +22°C° 0 mm 1 m/s 738 mmHg 72%
    07:00 +24°C° 0 mm 1 m/s 739 mmHg 67%
    08:00 +25°C° 0.1 mm 1 m/s 739 mmHg 62%
    09:00 +26°C° 0.1 mm 1 m/s 739 mmHg 56%
    10:00 +28°C° 0.1 mm 2 m/s 739 mmHg 51%
    11:00 +28°C° 0.2 mm 2 m/s 739 mmHg 51%
    12:00 +29°C° 0.2 mm 2 m/s 738 mmHg 50%
    13:00 +29°C° 0.2 mm 2 m/s 738 mmHg 49%
    14:00 +28°C° 0.5 mm 2 m/s 738 mmHg 55%
    15:00 +27°C° 0.5 mm 2 m/s 738 mmHg 60%
    16:00 +27°C° 0.5 mm 2 m/s 738 mmHg 66%
    17:00 +24°C° 0.9 mm 2 m/s 738 mmHg 73%
    18:00 +21°C° 0.9 mm 2 m/s 738 mmHg 79%
    19:00 +18°C° 0.9 mm 2 m/s 738 mmHg 86%
    20:00 +18°C° 0.1 mm 2 m/s 738 mmHg 87%
    21:00 +17°C° 0.1 mm 2 m/s 739 mmHg 88%
    22:00 +17°C° 0.1 mm 2 m/s 739 mmHg 89%
    23:00 +17°C° 0 mm 2 m/s 739 mmHg 86%

    Poimâine, 8 Iunie, Luni

    Timp Temperatura Precipitaţii Vânt Presiune Umiditate
    00:00 +18°C° 0 mm 1 m/s 739 mmHg 83%
    01:00 +16°C° 0 mm 1 m/s 738 mmHg 80%
    02:00 +16°C° 0 mm 1 m/s 738 mmHg 80%
    03:00 +16°C° 0 mm 1 m/s 738 mmHg 80%
    04:00 +16°C° 0 mm 1 m/s 738 mmHg 80%
    05:00 +19°C° 0 mm 1 m/s 738 mmHg 76%
    06:00 +20°C° 0 mm 1 m/s 738 mmHg 73%
    07:00 +20°C° 0 mm 0 m/s 738 mmHg 69%
    08:00 +24°C° 0 mm 1 m/s 738 mmHg 65%
    09:00 +25°C° 0 mm 1 m/s 739 mmHg 62%
    10:00 +26°C° 0 mm 2 m/s 739 mmHg 58%
    11:00 +26°C° 0.8 mm 2 m/s 739 mmHg 63%
    12:00 +26°C° 0.8 mm 2 m/s 738 mmHg 68%
    13:00 +26°C° 0.8 mm 2 m/s 738 mmHg 72%
    14:00 +25°C° 1.5 mm 2 m/s 738 mmHg 74%
    15:00 +25°C° 1.5 mm 1 m/s 738 mmHg 76%
    16:00 +25°C° 1.5 mm 1 m/s 738 mmHg 78%
    17:00 +23°C° 0.5 mm 1 m/s 738 mmHg 81%
    18:00 +20°C° 0.5 mm 0 m/s 738 mmHg 84%
    19:00 +19°C° 0.5 mm 0 m/s 738 mmHg 87%
    20:00 +18°C° 0.3 mm 0 m/s 738 mmHg 88%
    21:00 +17°C° 0.3 mm 0 m/s 738 mmHg 89%
    22:00 +17°C° 0.3 mm 0 m/s 738 mmHg 90%
    23:00 +18°C° 0.1 mm 1 m/s 738 mmHg 90%

    9 Iunie, Marţi

    Timp Temperatura Precipitaţii Vânt Presiune Umiditate
    00:00 +18°C° 0.1 mm 1 m/s 738 mmHg 90%
    01:00 +18°C° 0.1 mm 1 m/s 738 mmHg 91%
    02:00 +18°C° 0.1 mm 1 m/s 738 mmHg 91%
    03:00 +15°C° 0.1 mm 0 m/s 738 mmHg 92%
    04:00 +15°C° 0.1 mm 0 m/s 739 mmHg 92%
    05:00 +17°C° 0 mm 0 m/s 739 mmHg 90%
    06:00 +20°C° 0 mm 1 m/s 739 mmHg 88%
    07:00 +22°C° 0 mm 1 m/s 739 mmHg 86%
    08:00 +23°C° 0.9 mm 1 m/s 739 mmHg 83%
    09:00 +23°C° 0.9 mm 1 m/s 739 mmHg 81%
    10:00 +24°C° 0.9 mm 2 m/s 739 mmHg 79%
    11:00 +24°C° 0.8 mm 2 m/s 739 mmHg 78%
    12:00 +25°C° 0.8 mm 1 m/s 739 mmHg 76%
    13:00 +25°C° 0.8 mm 1 m/s 739 mmHg 74%
    14:00 +25°C° 0.9 mm 1 m/s 739 mmHg 76%
    15:00 +25°C° 0.9 mm 1 m/s 739 mmHg 77%
    16:00 +25°C° 0.9 mm 1 m/s 738 mmHg 78%
    17:00 +24°C° 0.6 mm 1 m/s 738 mmHg 81%
    18:00 +22°C° 0.6 mm 1 m/s 738 mmHg 84%
    19:00 +19°C° 0.6 mm 0 m/s 738 mmHg 88%
    20:00 +18°C° 0 mm 0 m/s 739 mmHg 88%
    21:00 +20°C° 0 mm 1 m/s 739 mmHg 89%
    22:00 +19°C° 0 mm 1 m/s 739 mmHg 90%
    23:00 +19°C° 0 mm 1 m/s 739 mmHg 90%

    10 Iunie, Miercuri

    Timp Temperatura Precipitaţii Vânt Presiune Umiditate
    00:00 +18°C° 0 mm 1 m/s 739 mmHg 90%
    01:00 +18°C° 0 mm 1 m/s 739 mmHg 90%
    02:00 +18°C° 0 mm 1 m/s 739 mmHg 90%
    03:00 +18°C° 0 mm 1 m/s 739 mmHg 90%
    04:00 +18°C° 0 mm 1 m/s 739 mmHg 90%
    05:00 +19°C° 0 mm 1 m/s 739 mmHg 87%
    06:00 +21°C° 0 mm 1 m/s 739 mmHg 83%
    07:00 +23°C° 0 mm 1 m/s 739 mmHg 80%
    08:00 +23°C° 1.1 mm 1 m/s 739 mmHg 79%
    09:00 +24°C° 1.1 mm 1 m/s 739 mmHg 79%
    10:00 +25°C° 1.1 mm 1 m/s 739 mmHg 78%
    11:00 +26°C° 1 mm 1 m/s 739 mmHg 75%
    12:00 +26°C° 1 mm 1 m/s 739 mmHg 72%
    13:00 +27°C° 1 mm 1 m/s 738 mmHg 69%
    14:00 +26°C° 1 mm 1 m/s 738 mmHg 72%
    15:00 +26°C° 1 mm 1 m/s 738 mmHg 74%
    16:00 +26°C° 1 mm 1 m/s 738 mmHg 77%
    17:00 +24°C° 0.8 mm 1 m/s 738 mmHg 81%
    18:00 +23°C° 0.8 mm 1 m/s 738 mmHg 84%
    19:00 +21°C° 0.8 mm 1 m/s 738 mmHg 88%
    20:00 +21°C° 0.2 mm 1 m/s 738 mmHg 88%
    21:00 +20°C° 0.2 mm 1 m/s 739 mmHg 89%
    22:00 +19°C° 0.2 mm 1 m/s 739 mmHg 89%
    23:00 +19°C° 0 mm 1 m/s 739 mmHg 89%

    11 Iunie, Joi

    Timp Temperatura Precipitaţii Vânt Presiune Umiditate
    00:00 +18°C° 0 mm 1 m/s 739 mmHg 89%
    01:00 +18°C° 0 mm 1 m/s 739 mmHg 89%
    02:00 +18°C° 0 mm 1 m/s 739 mmHg 89%
    03:00 +18°C° 0 mm 1 m/s 739 mmHg 90%
    04:00 +18°C° 0 mm 1 m/s 739 mmHg 90%
    05:00 +19°C° 0 mm 1 m/s 739 mmHg 88%
    06:00 +21°C° 0 mm 1 m/s 739 mmHg 85%
    07:00 +22°C° 0 mm 1 m/s 739 mmHg 83%
    08:00 +23°C° 0.4 mm 1 m/s 739 mmHg 79%
    09:00 +24°C° 0.4 mm 1 m/s 739 mmHg 76%
    10:00 +25°C° 0.4 mm 1 m/s 739 mmHg 72%
    11:00 +26°C° 0.6 mm 1 m/s 739 mmHg 72%
    12:00 +26°C° 0.6 mm 2 m/s 738 mmHg 73%
    13:00 +26°C° 0.6 mm 2 m/s 738 mmHg 73%
    14:00 +25°C° 1.2 mm 2 m/s 738 mmHg 77%
    15:00 +25°C° 1.2 mm 2 m/s 738 mmHg 81%
    16:00 +24°C° 1.2 mm 2 m/s 737 mmHg 84%
    17:00 +23°C° 0.7 mm 1 m/s 737 mmHg 86%
    18:00 +22°C° 0.7 mm 1 m/s 737 mmHg 88%
    19:00 +21°C° 0.7 mm 1 m/s 737 mmHg 90%
    20:00 +21°C° 0.6 mm 1 m/s 737 mmHg 91%
    21:00 +18°C° 0.6 mm 0 m/s 737 mmHg 91%
    22:00 +18°C° 0.6 mm 0 m/s 738 mmHg 92%
    23:00 +19°C° 0.4 mm 1 m/s 737 mmHg 92%
    Arată mai mult